Weather Roundup
Issued by NWS Springfield, MO

Home | Current Version | Previous Version | Text Only | Print | Product List | Glossary On
Versions: 1 2 3 4 5 6 7 8 9 10 11 12 13 14 15 16 17 18 19 20 21 22 23 24 25 26 27 28 29 30 31 32 33 34 35 36 37 38 39 40 41 42 43 44 45 46 47 48 49 50
000
NZUS99 KSGF 311159
HRRSGF

HOURLY WEATHER
NATIONAL WEATHER SERVICE SPRINGFIELD MO
700 AM CDT FRI JUL 31 2015

......SGF CWA......

CITY           SKY/WX    TMP DP  RH WIND       PRES   REMARKS
SPRINGFIELD    PTCLDY    70  65  84 CALM      30.18R
6HR MIN TEMP:  68; 6HR MAX TEMP:  73;

JOPLIN         MOCLDY    69  65  86 CALM      30.18R
6HR MIN TEMP:  69; 6HR MAX TEMP:  73;

WEST PLAINS    CLEAR     65  61  87 CALM      30.19R
6HR MIN TEMP:  62; 6HR MAX TEMP:  68;

ROLLA          CLEAR     63  62  97 SW3       30.16S
6HR MIN TEMP:  61; 6HR MAX TEMP:  68;

OSAGE BEACH    PTCLDY    61  57  88 CALM      30.18R
BRANSON        PTCLDY    64  64 100 CALM      30.19S

......SURROUNDING SGF CWA......

CITY           SKY/WX    TMP DP  RH WIND       PRES   REMARKS
CHANUTE        CLOUDY    67  66  97 CALM      30.18R
PARSONS        PTCLDY    71  67  87 CALM      30.18R
COFFEYVILLE    CLOUDY    74  70  87 CALM      30.16R
EMPORIA        CLEAR     65  64  97 CALM      30.19R
GROVE OK       PTCLDY    72  72 100 CALM      30.17R
SILOAM SPRINGS MOCLDY    70  61  73 E5        30.17R
HARRISON AR    CLEAR     64  63  96 CALM      30.19R
NEAR YELLVILLE PTCLDY    64  61  88 CALM      30.15S

......KANSAS AND MISSOURI......

CITY           SKY/WX    TMP DP  RH WIND       PRES   REMARKS
KANSAS CTY INT PTCLDY    64  60  87 SW5       30.17R
DOWNTOWN KC    CLEAR     68  65  90 CALM      30.17R
COLUMBIA       CLEAR     69  64  84 W7        30.17R
SEDALIA        CLEAR     69  60  73 SW5       30.18R
ST JOSEPH      PTCLDY    64  63  96 S3        30.17S
ST LOUIS       PTCLDY    73  65  75 W3        30.14R
SPIRIT OF STL  CLEAR     68  67  96 CALM      30.13R
KIRKSVILLE     CLOUDY    70  63  78 W5        30.15S
WICHITA        PTCLDY    72  67  84 N5        30.19R
TOPEKA         CLEAR     64  62  93 CALM      30.18R
OLATHE         CLEAR     65  61  87 CALM      30.18R

......TENNESSEE......

CITY           SKY/WX    TMP DP  RH WIND       PRES   REMARKS
MEMPHIS        PTCLDY    74  66  76 NE7       30.10R
NASHVILLE      MOSUNNY   67  65  93 CALM      30.09S

......ARKANSAS.......

CITY           SKY/WX    TMP DP  RH WIND       PRES   REMARKS
FAYETTEVILLE   MOCLDY    66  65  96 CALM      30.18R
FT SMITH       CLEAR     72  67  84 E5        30.13R
LITTLE ROCK    PTCLDY    73  62  68 N6        30.10S

......OKLAHOMA.......

CITY           SKY/WX    TMP DP  RH WIND       PRES   REMARKS
TULSA          MOCLDY    76  71  85 NE3       30.14R
PONCA CITY     CLOUDY    73  70  90 N3        30.16R
MCALESTER      PTCLDY    74  71  91 E3        30.13R
OKLAHOMA CITY  TSTM      76  74  93 E7        30.13F

......IOWA............

CITY           SKY/WX    TMP DP  RH WIND       PRES   REMARKS
DES MOINES     PTCLDY    71  63  75 CALM      30.12R
QUAD CITIES    SUNNY     68  64  87 W5        30.07R

......ILLINOIS........

CITY           SKY/WX    TMP DP  RH WIND       PRES   REMARKS
QUINCY         CLEAR     68  64  87 SW5       30.13R
CHICAGO        MOSUNNY   70  59  68 W9        30.01S



USA.gov is the U.S. government's official web portal to all federal, state and local government web resources and services.